CW1020 Weather Reports


time (UTC)temp
C
wind
direction
speed
KPH
gust
KPH
rain 1hr
cm
rain 24hr
cm
rain mn
cm
humidity
%
barometer
mb
20260904032003 17 163 3.2 4.8 0.00 0.00 0.00 48 1015.2
20260904031004 17 156 3.2 8.0 0.00 0.00 0.00 47 1015.1
20260904030503 17 163 1.6 4.8 0.00 0.00 0.00 46 1015.2
20260904030003 17 160 1.6 6.4 0.00 0.00 0.00 45 1015.2
20260904025003 18 174 3.2 3.2 0.00 0.00 0.00 45 1015.2
20260904024003 18 174 4.8 4.8 0.00 0.00 0.00 45 1015.2
20260904023504 18 181 6.4 8.0 0.00 0.00 0.00 45 1015.2
20260904023003 18 181 6.4 14.5 0.00 0.00 0.00 45 1015.2
20260904022502 18 191 6.4 9.7 0.00 0.00 0.00 45 1015.2
20260904021003 18 209 8.0 14.5 0.00 0.00 0.00 44 1015.2
20260904020004 19 219 9.7 14.5 0.00 0.00 0.00 42 1015.1
20260904015503 19 235 9.7 19.3 0.00 0.00 0.00 41 1015.2
20260904015003 19 229 11.3 17.7 0.00 0.00 0.00 41 1015.2
20260904014003 20 232 11.3 22.5 0.00 0.00 0.00 39 1015.1
20260904013503 20 220 11.3 16.1 0.00 0.00 0.00 38 1015.2
20260904013004 20 226 12.9 11.3 0.00 0.00 0.00 38 1015.3
20260904012503 20 235 12.9 20.9 0.00 0.00 0.00 37 1015.2
20260904012003 20 233 12.9 20.9 0.00 0.00 0.00 37 1015.3
20260904011503 21 228 12.9 20.9 0.00 0.00 0.00 37 1015.2
20260904011004 21 218 14.5 19.3 0.00 0.00 0.00 37 1015.2
20260904010503 21 214 14.5 16.1 0.00 0.00 0.00 37 1015.3
20260904005503 21 219 14.5 20.9 0.00 0.00 0.00 36 1015.3
20260904005003 21 220 14.5 20.9 0.00 0.00 0.00 35 1015.3
20260904003503 21 212 14.5 19.3 0.00 0.00 0.00 34 1015.3
20260904003003 21 218 14.5 24.1 0.00 0.00 0.00 34 1015.3
20260904002503 21 212 12.9 22.5 0.00 0.00 0.00 34 1015.3
20260904001504 21 210 14.5 17.7 0.00 0.00 0.00 34 1015.4
20260904001003 21 216 16.1 25.7 0.00 0.00 0.00 34 1015.4
20260904000503 21 222 16.1 25.7 0.00 0.00 0.00 35 1015.4
20260904000003 21 222 16.1 25.7 0.00 0.00 0.00 35 1015.3
20260903235503 21 234 16.1 29.0 0.00 0.00 0.00 35 1015.3
20260903235004 21 221 16.1 22.5 0.00 0.00 0.00 35 1015.4
20260903234503 21 208 16.1 27.4 0.00 0.00 0.00 36 1015.4
20260903233003 21 227 17.7 27.4 0.00 0.00 0.00 35 1015.4
20260903231504 21 231 17.7 30.6 0.00 0.00 0.00 36 1015.4
20260903230503 22 226 17.7 30.6 0.00 0.00 0.00 37 1015.5
20260903230003 22 206 16.1 30.6 0.00 0.00 0.00 37 1015.7
20260903225503 22 223 16.1 24.1 0.00 0.00 0.00 36 1015.7
20260903225004 22 230 16.1 29.0 0.00 0.00 0.00 37 1015.7
20260903224503 22 226 14.5 29.0 0.00 0.00 0.00 38 1015.8
20260903224003 22 233 14.5 22.5 0.00 0.00 0.00 38 1015.8
20260903223503 22 230 14.5 25.7 0.00 0.00 0.00 39 1015.9
20260903223004 22 227 14.5 22.5 0.00 0.00 0.00 39 1015.9
20260903222003 22 228 16.1 25.7 0.00 0.00 0.00 39 1016.0
20260903221503 22 228 14.5 29.0 0.00 0.00 0.00 40 1016.0
20260903221004 22 230 14.5 25.7 0.00 0.00 0.00 39 1016.0
20260903220503 22 233 12.9 27.4 0.00 0.00 0.00 38 1016.0
20260903220003 23 220 12.9 20.9 0.00 0.00 0.00 39 1016.1
20260903214503 23 204 4.8 9.7 0.00 0.00 0.00 41 1016.3
20260903214004 23 168 6.4 12.9 0.00 0.00 0.00 41 1016.3
20260903213004 22 230 6.4 9.7 0.00 0.00 0.00 41 1016.4
20260903212502 22 240 8.0 11.3 0.00 0.00 0.00 42 1016.3
20260903212002 22 203 8.0 17.7 0.00 0.00 0.00 42 1016.4
20260903211503 22 229 9.7 19.3 0.00 0.00 0.00 42 1016.4
20260903211003 22 206 12.9 16.1 0.00 0.00 0.00 42 1016.4
20260903210502 22 215 14.5 22.5 0.00 0.00 0.00 43 1016.4
20260903210003 22 226 14.5 24.1 0.00 0.00 0.00 43 1016.3
20260903205502 22 194 14.5 25.7 0.00 0.00 0.00 44 1016.3
20260903205002 21 224 14.5 27.4 0.00 0.00 0.00 45 1016.2
20260903204502 21 233 17.7 27.4 0.00 0.00 0.00 47 1016.3
20260903204002 20 232 17.7 25.7 0.00 0.00 0.00 48 1016.3
20260903203502 20 235 16.1 25.7 0.00 0.00 0.00 48 1016.2
20260903202502 20 236 17.7 30.6 0.00 0.00 0.00 49 1016.4
20260903202002 20 231 20.9 29.0 0.00 0.00 0.00 50 1016.5
20260903201502 20 241 20.9 32.2 0.00 0.00 0.00 50 1016.4
20260903201002 20 236 19.3 35.4 0.00 0.00 0.00 50 1016.5
20260903200502 20 239 20.9 27.4 0.00 0.00 0.00 50 1016.6
20260903200002 20 234 19.3 29.0 0.00 0.00 0.00 50 1016.6
20260903195503 20 241 17.7 30.6 0.00 0.00 0.00 51 1016.7
20260903195003 20 243 17.7 22.5 0.00 0.00 0.00 52 1016.8
20260903194502 19 241 19.3 33.8 0.00 0.00 0.00 53 1016.6
20260903194002 19 241 20.9 29.0 0.00 0.00 0.00 53 1016.7
20260903193503 19 238 19.3 32.2 0.00 0.00 0.00 53 1016.8
20260903193002 19 238 19.3 29.0 0.00 0.00 0.00 52 1016.9
20260903192502 19 235 20.9 29.0 0.00 0.00 0.00 52 1016.9
20260903192002 19 235 19.3 30.6 0.00 0.00 0.00 51 1016.8
20260903191502 19 235 17.7 29.0 0.00 0.00 0.00 49 1016.8
20260903191003 19 236 17.7 27.4 0.00 0.00 0.00 52 1017.1
20260903190502 19 235 19.3 27.4 0.00 0.00 0.00 52 1017.0
20260903190003 18 236 20.9 29.0 0.00 0.00 0.00 53 1017.2
20260903185503 18 237 19.3 27.4 0.00 0.00 0.00 51 1017.1
20260903185002 18 237 17.7 30.6 0.00 0.00 0.00 54 1017.3
20260903184503 18 233 17.7 29.0 0.00 0.00 0.00 53 1017.4
20260903184002 18 237 17.7 32.2 0.00 0.00 0.00 52 1017.3
20260903183502 18 234 17.7 27.4 0.00 0.00 0.00 53 1017.4
20260903183003 18 237 16.1 24.1 0.00 0.00 0.00 53 1017.5
20260903182502 18 239 14.5 29.0 0.00 0.00 0.00 52 1017.5
20260903182002 18 233 16.1 25.7 0.00 0.00 0.00 54 1017.5
20260903181502 18 238 14.5 24.1 0.00 0.00 0.00 55 1017.6
20260903181003 17 235 16.1 24.1 0.00 0.00 0.00 56 1017.6
20260903180502 17 232 16.1 22.5 0.00 0.00 0.00 56 1017.6
20260903180003 17 236 14.5 29.0 0.00 0.00 0.00 56 1017.7
20260903175502 17 238 11.3 24.1 0.00 0.00 0.00 58 1017.8
20260903175002 17 239 11.3 25.7 0.00 0.00 0.00 60 1017.9
20260903174503 17 239 11.3 22.5 0.00 0.00 0.00 60 1017.9
20260903174002 17 245 11.3 22.5 0.00 0.00 0.00 60 1017.8
20260903173503 16 247 12.9 22.5 0.00 0.00 0.00 61 1017.9
20260903173002 16 242 12.9 20.9 0.00 0.00 0.00 61 1018.0
20260903172003 16 242 8.0 19.3 0.00 0.00 0.00 61 1018.1
20260903171502 16 252 8.0 16.1 0.00 0.00 0.00 61 1018.1
20260903171002 16 242 9.7 12.9 0.00 0.00 0.00 62 1018.2
20260903170502 16 243 6.4 16.1 0.00 0.00 0.00 61 1018.1
20260903170002 16 245 4.8 17.7 0.00 0.00 0.00 62 1018.1
20260903165502 16 245 4.8 14.5 0.00 0.00 0.00 63 1018.1
20260903164502 15 235 4.8 16.1 0.00 0.00 0.00 63 1018.0
20260903164002 15 242 3.2 14.5 0.00 0.00 0.00 64 1018.1
20260903163502 15 245 3.2 6.4 0.00 0.00 0.00 64 1018.0
20260903162502 15 244 4.8 8.0 0.00 0.00 0.00 66 1018.1
20260903162003 15 236 4.8 8.0 0.00 0.00 0.00 66 1018.1
20260903161503 14 237 4.8 8.0 0.00 0.00 0.00 66 1018.1
20260903161002 14 241 4.8 12.9 0.00 0.00 0.00 66 1018.0
20260903160502 14 241 4.8 12.9 0.00 0.00 0.00 67 1018.1
20260903155502 14 242 4.8 12.9 0.00 0.00 0.00 67 1018.2
20260903155003 13 241 3.2 11.3 0.00 0.00 0.00 67 1018.1
20260903154502 13 241 3.2 6.4 0.00 0.00 0.00 68 1018.1
20260903154002 13 241 1.6 4.8 0.00 0.00 0.00 68 1018.1
20260903153502 13 249 1.6 4.8 0.00 0.00 0.00 68 1018.2
20260903153002 13 235 1.6 4.8 0.00 0.00 0.00 69 1018.2
20260903152503 13 244 1.6 3.2 0.00 0.00 0.00 70 1018.2
20260903152002 12 249 1.6 3.2 0.00 0.00 0.00 71 1018.2
20260903151502 12 252 0.0 4.8 0.00 0.00 0.00 72 1018.2
20260903151002 12 288 0.0 1.6 0.00 0.00 0.00 73 1018.3
20260903150502 12 269 0.0 3.2 0.00 0.00 0.00 73 1018.3
20260903150003 11 267 0.0 1.6 0.00 0.00 0.00 73 1018.3
20260903145503 11 262 0.0 1.6 0.00 0.00 0.00 73 1018.4
20260903145002 11 261 0.0 1.6 0.00 0.00 0.00 72 1018.3
20260903144502 11 260 0.0 1.6 0.00 0.00 0.00 72 1018.3
20260903144002 11 0 0.0 0.0 0.00 0.00 0.00 72 1018.3
20260903143503 11 260 0.0 1.6 0.00 0.00 0.00 71 1018.2
20260903143002 11 0 0.0 0.0 0.00 0.00 0.00 71 1018.2
20260903142502 11 231 0.0 3.2 0.00 0.00 0.00 71 1018.1
20260903142003 11 169 0.0 1.6 0.00 0.00 0.00 71 1018.1
20260903141502 11 0 0.0 0.0 0.00 0.00 0.00 72 1018.1
20260903140003 11 0 0.0 0.0 0.00 0.00 0.00 73 1018.3
20260903135502 11 0 0.0 0.0 0.00 0.00 0.00 71 1018.0
20260903135002 11 0 0.0 0.0 0.00 0.00 0.00 71 1017.9
20260903134502 12 0 0.0 0.0 0.00 0.00 0.00 71 1017.9
20260903134003 12 0 0.0 0.0 0.00 0.00 0.00 71 1017.8
20260903132502 12 145 0.0 1.6 0.00 0.00 0.00 70 1017.7
20260903131503 12 0 0.0 0.0 0.00 0.00 0.00 70 1017.6
20260903131002 12 138 0.0 1.6 0.00 0.00 0.00 70 1017.7
20260903130502 12 0 0.0 0.0 0.00 0.00 0.00 70 1017.7
20260903130003 11 137 0.0 1.6 0.00 0.00 0.00 70 1017.7
20260903125502 11 0 0.0 0.0 0.00 0.00 0.00 70 1017.7
20260903125002 11 0 0.0 0.0 0.00 0.00 0.00 70 1017.7
20260903123003 12 0 0.0 0.0 0.00 0.00 0.00 70 1017.9
20260903122503 12 0 0.0 0.0 0.00 0.00 0.00 70 1017.9
20260903122002 12 0 0.0 0.0 0.00 0.00 0.00 70 1017.9
20260903121503 12 0 0.0 0.0 0.00 0.00 0.00 70 1017.8
20260903120502 12 176 0.0 1.6 0.00 0.00 0.00 70 1017.8
20260903120003 11 182 0.0 1.6 0.00 0.00 0.00 69 1017.8
20260903115502 12 182 0.0 1.6 0.00 0.00 0.00 69 1017.8
20260903115002 12 0 0.0 0.0 0.00 0.00 0.00 68 1017.8
20260903114503 12 182 0.0 1.6 0.00 0.00 0.00 68 1017.9
20260903114002 12 183 0.0 1.6 0.00 0.00 0.00 67 1017.8
20260903113503 12 182 0.0 1.6 0.00 0.00 0.00 67 1017.9
20260903113002 12 0 0.0 0.0 0.00 0.00 0.00 67 1017.8
20260903112502 12 0 0.0 0.0 0.00 0.00 0.00 67 1018.0
20260903112003 12 182 0.0 1.6 0.00 0.00 0.00 67 1017.9
20260903111503 12 182 0.0 4.8 0.00 0.00 0.00 67 1017.9
20260903111002 12 182 0.0 1.6 0.00 0.00 0.00 67 1018.0
20260903110503 12 181 0.0 1.6 0.00 0.00 0.00 66 1018.0
20260903110003 12 158 0.0 1.6 0.00 0.00 0.00 66 1018.0
20260903105503 12 155 0.0 1.6 0.00 0.00 0.00 67 1018.1
20260903105003 12 154 0.0 1.6 0.00 0.00 0.00 66 1018.1
20260903104503 12 0 0.0 0.0 0.00 0.00 0.00 65 1018.0
20260903104003 12 149 0.0 1.6 0.00 0.00 0.00 66 1018.1
20260903103503 12 0 0.0 0.0 0.00 0.00 0.00 65 1018.2
20260903103003 13 0 0.0 0.0 0.00 0.00 0.00 64 1018.0
20260903102503 13 0 0.0 0.0 0.00 0.00 0.00 64 1018.1
20260903102002 13 0 0.0 0.0 0.00 0.00 0.00 64 1018.2
20260903101503 13 0 0.0 0.0 0.00 0.00 0.00 63 1018.2
20260903101003 13 0 0.0 0.0 0.00 0.00 0.00 63 1018.1
20260903100502 13 0 0.0 0.0 0.00 0.00 0.00 63 1018.0
20260903100003 13 0 0.0 0.0 0.00 0.00 0.00 63 1018.1
20260903095503 13 0 0.0 0.0 0.00 0.00 0.00 62 1018.1
20260903095002 13 0 0.0 0.0 0.00 0.00 0.00 62 1018.2
20260903094503 13 0 0.0 0.0 0.00 0.00 0.00 62 1018.2
20260903094003 13 0 0.0 0.0 0.00 0.00 0.00 61 1018.3
20260903092503 14 0 0.0 0.0 0.00 0.00 0.00 60 1018.4
20260903092003 14 0 0.0 0.0 0.00 0.00 0.00 60 1018.4
20260903091503 14 0 0.0 0.0 0.00 0.00 0.00 59 1018.5
20260903091003 14 0 0.0 0.0 0.00 0.00 0.00 59 1018.5
20260903090503 15 0 0.0 0.0 0.00 0.00 0.00 59 1018.6
20260903090003 15 0 0.0 0.0 0.00 0.00 0.00 59 1018.6
20260903085503 15 0 1.6 0.0 0.00 0.00 0.00 59 1018.5
20260903085002 15 153 4.8 4.8 0.00 0.00 0.00 59 1018.6
20260903084503 14 181 3.2 4.8 0.00 0.00 0.00 59 1018.6
20260903084004 14 158 1.6 20.9 0.00 0.00 0.00 60 1018.6
20260903083002 14 216 0.0 3.2 0.00 0.00 0.00 58 1018.6
20260903082503 14 229 0.0 1.6 0.00 0.00 0.00 58 1018.7
20260903082003 15 229 0.0 1.6 0.00 0.00 0.00 58 1018.8
20260903081502 15 0 0.0 0.0 0.00 0.00 0.00 58 1018.9
20260903080503 15 0 0.0 0.0 0.00 0.00 0.00 57 1019.0
20260903075503 15 0 3.2 0.0 0.00 0.00 0.00 56 1018.8
20260903075002 15 192 4.8 3.2 0.00 0.00 0.00 57 1018.9
20260903074003 15 131 3.2 12.9 0.00 0.00 0.00 59 1019.0
20260903073502 15 142 3.2 12.9 0.00 0.00 0.00 59 1018.9
20260903073003 15 145 3.2 8.0 0.00 0.00 0.00 59 1018.9
20260903072503 15 135 3.2 8.0 0.00 0.00 0.00 60 1018.9
20260903072003 14 134 1.6 9.7 0.00 0.00 0.00 60 1018.9
20260903071003 14 130 1.6 3.2 0.00 0.00 0.00 60 1018.9
20260903070004 14 155 1.6 9.7 0.00 0.00 0.00 59 1018.9
20260903065503 14 151 0.0 3.2 0.00 0.00 0.00 59 1018.8
20260903064503 14 0 0.0 0.0 0.00 0.00 0.00 58 1018.9
20260903063503 15 298 0.0 1.6 0.00 0.00 0.00 57 1018.9
20260903063003 15 0 0.0 0.0 0.00 0.00 0.00 57 1018.9
20260903062503 15 0 0.0 0.0 0.00 0.00 0.00 57 1019.0
20260903062003 15 0 0.0 0.0 0.00 0.00 0.00 57 1019.0
20260903061503 15 297 0.0 1.6 0.00 0.00 0.00 57 1019.1
20260903061003 15 297 0.0 1.6 0.00 0.00 0.00 55 1018.9
20260903060502 15 297 0.0 1.6 0.00 0.00 0.00 55 1018.8
20260903055502 15 0 1.6 0.0 0.00 0.00 0.00 53 1019.0
20260903054503 15 123 0.0 4.8 0.00 0.00 0.00 54 1018.9
20260903054003 15 162 0.0 3.2 0.00 0.00 0.00 53 1019.0
20260903053503 15 168 0.0 1.6 0.00 0.00 0.00 53 1019.0
20260903053002 15 0 0.0 0.0 0.00 0.00 0.00 52 1019.0
20260903052503 16 168 0.0 1.6 0.00 0.00 0.00 52 1019.0
20260903052003 16 0 0.0 0.0 0.00 0.00 0.00 52 1019.0
20260903050503 16 139 3.2 9.7 0.00 0.00 0.00 53 1019.1
20260903050003 16 150 1.6 11.3 0.00 0.00 0.00 52 1019.1
20260903045503 16 177 1.6 4.8 0.00 0.00 0.00 52 1019.1
20260903045003 16 177 3.2 11.3 0.00 0.00 0.00 52 1019.0
20260903044003 16 154 3.2 14.5 0.00 0.00 0.00 52 1018.9
20260903043004 16 150 4.8 6.4 0.00 0.00 0.00 52 1018.9
20260903042503 16 152 4.8 8.0 0.00 0.00 0.00 52 1018.8
20260903042003 16 155 1.6 9.7 0.00 0.00 0.00 53 1019.0
20260903041004 16 169 4.8 4.8 0.00 0.00 0.00 53 1019.0
20260903040003 16 146 4.8 16.1 0.00 0.00 0.00 53 1018.9
20260903035003 16 164 3.2 6.4 0.00 0.00 0.00 52 1018.8
20260903034503 16 145 4.8 6.4 0.00 0.00 0.00 52 1018.7
20260903034003 16 165 3.2 9.7 0.00 0.00 0.00 49 1018.6
20260903033503 16 155 0.0 8.0 0.00 0.00 0.00 49 1018.5
20260903033003 16 0 0.0 0.0 0.00 0.00 0.00 48 1018.6
20260903032503 16 179 0.0 1.6 0.00 0.00 0.00 47 1018.5